Location: Friedrichshafen
(47.6598°N, 9.4819°E)
Time: 01:03:43
(UTC+01:00)

ISS - Pass Details

Date: 11 November 2017
Orbit: 402 x 407 km, 51.6° (Epoch: 20 November)

Event Time Altitude Azimuth Distance (km) Brightness Sun altitude
Exits shadow 06:42:44 - 293° (WNW) 1,529 -1.6 -6.9°
Reaches altitude 10° 06:42:55 10° 293° (WNW) 1,458 -1.7 -6.9°
Maximum altitude 06:46:11 85° 208° (SSW) 408 -3.8 -6.3°
Drops below altitude 10° 06:49:26 10° 117° (ESE) 1,453 0.8 -5.8°
Sets 06:51:31 0° 117° (ESE) 2,310 2.5 -5.5°
